Time,TemperatureF,DewpointF,PressureIn,WindDirection,WindDirectionDegrees,WindSpeedMPH,WindSpeedGustMPH,Humidity,HourlyPrecipIn,Conditions,Clouds,dailyrainin,SoftwareType,DateUTC
2013-03-11 00:05:00,44.3,42.1,30.42,West,274,0.0,0.0,92,0.00,,,0.00,Wunderground v.1.15,2013-03-11 07:05:00,
2013-03-11 00:10:00,44.3,42.1,30.42,West,274,0.0,0.0,92,0.00,,,0.00,Wunderground v.1.15,2013-03-11 07:10:00,
2013-03-11 00:15:00,44.3,41.8,30.42,West,274,0.0,0.0,91,0.00,,,0.00,Wunderground v.1.15,2013-03-11 07:15:00,
2013-03-11 00:25:00,44.3,42.1,30.42,West,274,0.0,0.0,92,0.00,,,0.00,Wunderground v.1.15,2013-03-11 07:25:00,
2013-03-11 00:35:00,44.3,42.1,30.41,West,274,0.0,0.0,92,0.00,,,0.00,Wunderground v.1.15,2013-03-11 07:35:00,
2013-03-11 00:45:00,44.3,42.1,30.42,West,274,0.0,0.0,92,0.00,,,0.00,Wunderground v.1.15,2013-03-11 07:45:00,
2013-03-11 00:55:00,44.3,42.1,30.41,West,274,0.0,0.0,92,0.00,,,0.00,Wunderground v.1.15,2013-03-11 07:55:00,
2013-03-11 01:05:00,44.2,42.0,30.41,West,274,0.0,0.0,92,0.00,,,0.00,Wunderground v.1.15,2013-03-11 08:05:00,
2013-03-11 01:10:00,44.2,42.0,30.41,West,274,0.0,0.0,92,0.00,,,0.00,Wunderground v.1.15,2013-03-11 08:10:00,
2013-03-11 01:15:00,44.3,42.1,30.42,West,274,0.0,0.0,92,0.00,,,0.00,Wunderground v.1.15,2013-03-11 08:15:00,
2013-03-11 01:25:00,44.3,42.1,30.42,West,274,0.0,0.0,92,0.00,,,0.00,Wunderground v.1.15,2013-03-11 08:25:00,
2013-03-11 01:35:00,44.2,42.0,30.41,West,274,0.0,0.0,92,0.00,,,0.00,Wunderground v.1.15,2013-03-11 08:35:00,
2013-03-11 01:45:00,44.3,42.4,30.42,West,274,0.0,0.0,93,0.00,,,0.00,Wunderground v.1.15,2013-03-11 08:45:00,
2013-03-11 01:50:00,44.3,42.4,30.42,West,274,0.0,0.0,93,0.00,,,0.00,Wunderground v.1.15,2013-03-11 08:50:00,
2013-03-11 01:55:00,44.3,42.4,30.42,West,274,0.0,0.0,93,0.00,,,0.00,Wunderground v.1.15,2013-03-11 08:55:00,
2013-03-11 02:05:00,44.3,42.4,30.42,WSW,239,0.0,0.0,93,0.00,,,0.00,Wunderground v.1.15,2013-03-11 09:05:00,
2013-03-11 02:15:00,44.4,42.5,30.42,SW,216,0.0,0.0,93,0.00,,,0.00,Wunderground v.1.15,2013-03-11 09:15:00,
2013-03-11 02:25:00,44.4,42.5,30.42,SW,216,0.0,0.0,93,0.00,,,0.00,Wunderground v.1.15,2013-03-11 09:25:00,
2013-03-11 02:35:00,44.4,42.5,30.42,SW,216,0.0,0.0,93,0.00,,,0.00,Wunderground v.1.15,2013-03-11 09:35:00,
2013-03-11 02:45:00,44.4,42.5,30.42,SW,216,0.0,0.0,93,0.00,,,0.00,Wunderground v.1.15,2013-03-11 09:45:00,
2013-03-11 02:55:00,44.4,42.5,30.42,SW,216,0.0,0.0,93,0.00,,,0.00,Wunderground v.1.15,2013-03-11 09:55:00,
2013-03-11 03:05:00,44.4,42.5,30.42,SW,216,0.0,0.0,93,0.00,,,0.00,Wunderground v.1.15,2013-03-11 10:05:00,
2013-03-11 03:15:00,44.4,42.5,30.42,SW,216,0.0,0.0,93,0.00,,,0.00,Wunderground v.1.15,2013-03-11 10:15:00,
2013-03-11 03:25:00,44.4,42.5,30.41,SW,216,0.0,0.0,93,0.00,,,0.00,Wunderground v.1.15,2013-03-11 10:25:00,
2013-03-11 03:35:00,44.4,42.5,30.41,SW,216,0.0,0.0,93,0.00,,,0.00,Wunderground v.1.15,2013-03-11 10:35:00,
2013-03-11 03:45:00,44.4,42.5,30.41,SW,216,0.0,0.0,93,0.00,,,0.00,Wunderground v.1.15,2013-03-11 10:45:00,
2013-03-11 03:55:00,44.4,42.5,30.41,SW,216,0.0,0.0,93,0.00,,,0.00,Wunderground v.1.15,2013-03-11 10:55:00,
2013-03-11 04:05:00,44.4,42.5,30.41,SW,216,0.0,0.0,93,0.00,,,0.00,Wunderground v.1.15,2013-03-11 11:05:00,
2013-03-11 04:15:00,44.5,42.6,30.41,SW,216,0.0,0.0,93,0.00,,,0.00,Wunderground v.1.15,2013-03-11 11:15:00,
2013-03-11 04:25:00,44.5,42.6,30.40,SW,216,0.0,0.0,93,0.00,,,0.00,Wunderground v.1.15,2013-03-11 11:25:00,
2013-03-11 04:35:00,44.5,42.6,30.40,SW,216,0.0,0.0,93,0.00,,,0.00,Wunderground v.1.15,2013-03-11 11:35:00,
2013-03-11 04:45:00,44.4,42.5,30.40,SW,216,0.0,0.0,93,0.00,,,0.00,Wunderground v.1.15,2013-03-11 11:45:00,
2013-03-11 04:55:00,44.4,42.5,30.39,SW,216,0.0,0.0,93,0.00,,,0.00,Wunderground v.1.15,2013-03-11 11:55:00,
2013-03-11 05:00:00,44.4,42.2,30.39,SW,216,0.0,0.0,92,0.00,,,0.00,Wunderground v.1.15,2013-03-11 12:00:00,
2013-03-11 05:10:00,44.4,42.2,30.39,SW,216,0.0,0.0,92,0.00,,,0.00,Wunderground v.1.15,2013-03-11 12:10:00,
2013-03-11 05:15:00,44.3,42.1,30.39,SW,216,0.0,0.0,92,0.00,,,0.00,Wunderground v.1.15,2013-03-11 12:15:00,
2013-03-11 05:20:00,44.3,42.1,30.39,SW,216,0.0,0.0,92,0.00,,,0.00,Wunderground v.1.15,2013-03-11 12:20:00,
2013-03-11 05:25:00,44.3,42.4,30.40,SW,216,0.0,0.0,93,0.00,,,0.00,Wunderground v.1.15,2013-03-11 12:25:00,
2013-03-11 05:35:00,44.3,42.4,30.40,SW,216,0.0,0.0,93,0.00,,,0.00,Wunderground v.1.15,2013-03-11 12:35:00,
2013-03-11 05:45:00,44.4,42.5,30.39,SW,216,0.0,0.0,93,0.00,,,0.00,Wunderground v.1.15,2013-03-11 12:45:00,
2013-03-11 05:55:00,44.4,42.2,30.39,SW,216,0.0,0.0,92,0.00,,,0.00,Wunderground v.1.15,2013-03-11 12:55:00,
2013-03-11 06:05:00,44.3,42.1,30.39,SW,216,0.0,0.0,92,0.00,,,0.00,Wunderground v.1.15,2013-03-11 13:05:00,
2013-03-11 06:15:00,44.1,41.9,30.39,SW,216,0.0,0.0,92,0.00,,,0.00,Wunderground v.1.15,2013-03-11 13:15:00,
2013-03-11 06:25:00,44.0,41.8,30.39,SW,216,0.0,0.0,92,0.00,,,0.00,Wunderground v.1.15,2013-03-11 13:25:00,
2013-03-11 06:35:00,43.9,41.7,30.39,SW,216,0.0,0.0,92,0.00,,,0.00,Wunderground v.1.15,2013-03-11 13:35:00,
2013-03-11 06:45:00,43.8,41.6,30.39,SW,216,0.0,0.0,92,0.00,,,0.00,Wunderground v.1.15,2013-03-11 13:45:00,
2013-03-11 06:55:00,43.7,41.5,30.39,SW,216,0.0,0.0,92,0.00,,,0.00,Wunderground v.1.15,2013-03-11 13:55:00,
2013-03-11 07:05:00,43.4,41.2,30.38,SW,216,0.0,0.0,92,0.00,,,0.00,Wunderground v.1.15,2013-03-11 14:05:00,
2013-03-11 07:15:00,43.2,41.0,30.38,SW,216,0.0,0.0,92,0.00,,,0.00,Wunderground v.1.15,2013-03-11 14:15:00,
2013-03-11 07:20:00,43.1,40.9,30.38,SW,216,0.0,0.0,92,0.00,,,0.00,Wunderground v.1.15,2013-03-11 14:20:00,
2013-03-11 07:25:00,43.0,41.1,30.38,SW,216,0.0,0.0,93,0.00,,,0.00,Wunderground v.1.15,2013-03-11 14:25:00,
2013-03-11 07:35:00,42.9,41.0,30.38,SW,216,0.0,0.0,93,0.00,,,0.00,Wunderground v.1.15,2013-03-11 14:35:00,
2013-03-11 07:45:00,42.8,41.2,30.38,North,7,0.0,0.0,94,0.00,,,0.00,Wunderground v.1.15,2013-03-11 14:45:00,
2013-03-11 07:55:00,42.9,41.3,30.38,NW,316,0.0,0.0,94,0.00,,,0.00,Wunderground v.1.15,2013-03-11 14:55:00,
2013-03-11 08:05:00,43.0,41.4,30.38,NW,306,0.0,0.0,94,0.00,,,0.00,Wunderground v.1.15,2013-03-11 15:05:00,
2013-03-11 08:15:00,43.2,41.6,30.38,North,353,0.0,0.0,94,0.00,,,0.00,Wunderground v.1.15,2013-03-11 15:15:00,
2013-03-11 08:25:00,43.3,41.7,30.38,North,353,0.0,0.0,94,0.00,,,0.00,Wunderground v.1.15,2013-03-11 15:25:00,
2013-03-11 08:35:00,43.6,42.0,30.38,North,353,0.0,0.0,94,0.00,,,0.00,Wunderground v.1.15,2013-03-11 15:35:00,
2013-03-11 08:45:00,43.7,41.8,30.38,North,353,0.0,0.0,93,0.00,,,0.00,Wunderground v.1.15,2013-03-11 15:45:00,
2013-03-11 08:50:00,43.8,41.9,30.38,North,353,0.0,0.0,93,0.00,,,0.00,Wunderground v.1.15,2013-03-11 15:50:00,
2013-03-11 08:55:00,44.0,41.8,30.38,North,353,0.0,0.0,92,0.00,,,0.00,Wunderground v.1.15,2013-03-11 15:55:00,
2013-03-11 09:05:00,44.3,42.1,30.38,North,353,0.0,0.0,92,0.00,,,0.00,Wunderground v.1.15,2013-03-11 16:05:00,
2013-03-11 09:15:00,44.7,42.5,30.38,North,4,0.0,0.0,92,0.00,,,0.00,Wunderground v.1.15,2013-03-11 16:15:00,
2013-03-11 09:25:00,45.0,42.5,30.38,North,5,0.0,0.0,91,0.00,,,0.00,Wunderground v.1.15,2013-03-11 16:25:00,
2013-03-11 09:35:00,45.3,42.2,30.38,North,5,0.0,0.0,89,0.00,,,0.00,Wunderground v.1.15,2013-03-11 16:35:00,
2013-03-11 09:45:00,45.6,42.3,30.38,North,5,0.0,0.0,88,0.00,,,0.00,Wunderground v.1.15,2013-03-11 16:45:00,
2013-03-11 09:55:00,45.9,42.5,30.38,North,5,0.0,0.0,88,0.00,,,0.00,Wunderground v.1.15,2013-03-11 16:55:00,
2013-03-11 10:05:00,46.0,42.3,30.38,NNE,25,0.0,0.0,87,0.00,,,0.00,Wunderground v.1.15,2013-03-11 17:05:00,
2013-03-11 10:15:00,46.4,42.4,30.38,NNE,25,0.0,0.0,86,0.00,,,0.00,Wunderground v.1.15,2013-03-11 17:15:00,
2013-03-11 10:25:00,47.3,43.0,30.38,NE,36,0.0,0.0,85,0.00,,,0.00,Wunderground v.1.15,2013-03-11 17:25:00,
2013-03-11 10:35:00,48.1,42.5,30.37,NNE,33,0.0,1.0,81,0.00,,,0.00,Wunderground v.1.15,2013-03-11 17:35:00,
2013-03-11 10:45:00,48.5,42.6,30.37,NE,55,0.0,1.0,80,0.00,,,0.00,Wunderground v.1.15,2013-03-11 17:45:00,
2013-03-11 10:55:00,48.8,42.2,30.37,NNE,25,0.0,1.0,78,0.00,,,0.00,Wunderground v.1.15,2013-03-11 17:55:00,
2013-03-11 11:05:00,49.3,42.4,30.37,NE,47,0.0,0.0,77,0.00,,,0.00,Wunderground v.1.15,2013-03-11 18:05:00,
2013-03-11 11:15:00,49.4,41.5,30.37,NNE,22,0.0,0.0,74,0.00,,,0.00,Wunderground v.1.15,2013-03-11 18:15:00,
2013-03-11 11:25:00,49.6,41.7,30.36,NE,45,0.0,0.0,74,0.00,,,0.00,Wunderground v.1.15,2013-03-11 18:25:00,
2013-03-11 11:35:00,49.8,41.1,30.36,NE,39,0.0,1.0,72,0.00,,,0.00,Wunderground v.1.15,2013-03-11 18:35:00,
2013-03-11 11:45:00,49.9,41.6,30.36,NNE,22,0.0,1.0,73,0.00,,,0.00,Wunderground v.1.15,2013-03-11 18:45:00,
2013-03-11 11:55:00,50.8,42.8,30.36,ENE,68,0.0,1.0,74,0.00,,,0.00,Wunderground v.1.15,2013-03-11 18:55:00,
2013-03-11 12:05:00,52.5,43.0,30.35,SSE,158,0.0,1.0,70,0.00,,,0.00,Wunderground v.1.15,2013-03-11 19:05:00,
2013-03-11 12:15:00,53.5,42.8,30.35,South,175,0.0,0.0,67,0.00,,,0.00,Wunderground v.1.15,2013-03-11 19:15:00,
2013-03-11 12:25:00,53.7,42.6,30.35,SSE,162,0.0,0.0,66,0.00,,,0.00,Wunderground v.1.15,2013-03-11 19:25:00,
2013-03-11 12:35:00,53.7,43.0,30.35,SSE,164,0.0,1.0,67,0.00,,,0.00,Wunderground v.1.15,2013-03-11 19:35:00,
2013-03-11 12:45:00,54.0,43.3,30.35,SE,127,0.0,1.0,67,0.00,,,0.00,Wunderground v.1.15,2013-03-11 19:45:00,
2013-03-11 12:55:00,54.4,42.9,30.34,SSE,151,0.0,1.0,65,0.00,,,0.00,Wunderground v.1.15,2013-03-11 19:55:00,
2013-03-11 13:05:00,54.5,42.6,30.34,SSE,156,0.0,0.0,64,0.00,,,0.00,Wunderground v.1.15,2013-03-11 20:05:00,
2013-03-11 13:15:00,54.6,42.7,30.34,SE,129,0.0,0.0,64,0.00,,,0.00,Wunderground v.1.15,2013-03-11 20:15:00,
2013-03-11 13:25:00,54.9,42.1,30.34,SSE,168,0.0,0.0,62,0.00,,,0.00,Wunderground v.1.15,2013-03-11 20:25:00,
2013-03-11 13:35:00,55.2,42.8,30.33,SSE,165,0.0,3.0,63,0.00,,,0.00,Wunderground v.1.15,2013-03-11 20:35:00,
2013-03-11 13:45:00,55.4,43.0,30.33,South,185,0.0,3.0,63,0.00,,,0.00,Wunderground v.1.15,2013-03-11 20:45:00,
2013-03-11 13:55:00,54.8,42.9,30.32,SSE,161,0.0,3.0,64,0.00,,,0.00,Wunderground v.1.15,2013-03-11 20:55:00,
2013-03-11 14:05:00,54.6,42.7,30.32,SSE,166,0.0,0.0,64,0.00,,,0.00,Wunderground v.1.15,2013-03-11 21:05:00,
2013-03-11 14:15:00,55.2,42.8,30.32,SSE,166,0.0,0.0,63,0.00,,,0.00,Wunderground v.1.15,2013-03-11 21:15:00,
2013-03-11 14:25:00,55.1,43.1,30.31,WNW,301,0.0,0.0,64,0.00,,,0.00,Wunderground v.1.15,2013-03-11 21:25:00,
2013-03-11 14:35:00,55.0,43.0,30.31,NW,326,0.0,2.0,64,0.00,,,0.00,Wunderground v.1.15,2013-03-11 21:35:00,
2013-03-11 14:45:00,55.0,42.6,30.30,WNW,301,0.0,2.0,63,0.00,,,0.00,Wunderground v.1.15,2013-03-11 21:45:00,
2013-03-11 14:55:00,54.5,42.2,30.30,SSE,151,0.0,2.0,63,0.00,,,0.00,Wunderground v.1.15,2013-03-11 21:55:00,
2013-03-11 15:05:00,54.3,42.4,30.30,SSE,153,0.0,0.0,64,0.00,,,0.00,Wunderground v.1.15,2013-03-11 22:05:00,
2013-03-11 15:15:00,53.6,42.1,30.29,SSW,197,0.0,0.0,65,0.00,,,0.00,Wunderground v.1.15,2013-03-11 22:15:00,
2013-03-11 15:25:00,53.2,42.1,30.29,SW,217,0.0,0.0,66,0.00,,,0.00,Wunderground v.1.15,2013-03-11 22:25:00,
2013-03-11 15:35:00,53.7,42.6,30.29,SSE,151,0.0,1.0,66,0.00,,,0.00,Wunderground v.1.15,2013-03-11 22:35:00,
2013-03-11 15:45:00,54.3,42.8,30.28,SSW,197,0.0,1.0,65,0.00,,,0.00,Wunderground v.1.15,2013-03-11 22:45:00,
2013-03-11 15:55:00,54.6,43.1,30.28,SSW,200,0.0,1.0,65,0.00,,,0.00,Wunderground v.1.15,2013-03-11 22:55:00,
2013-03-11 16:05:00,54.2,43.1,30.28,SSW,198,0.0,0.0,66,0.00,,,0.00,Wunderground v.1.15,2013-03-11 23:05:00,
2013-03-11 16:15:00,53.9,43.2,30.27,SSE,153,0.0,0.0,67,0.00,,,0.00,Wunderground v.1.15,2013-03-11 23:15:00,
2013-03-11 16:25:00,54.1,43.4,30.27,SSE,153,0.0,0.0,67,0.00,,,0.00,Wunderground v.1.15,2013-03-11 23:25:00,
2013-03-11 16:35:00,53.9,43.2,30.27,SSE,153,0.0,2.0,67,0.00,,,0.00,Wunderground v.1.15,2013-03-11 23:35:00,
2013-03-11 16:45:00,53.3,43.4,30.27,SSE,153,0.0,2.0,69,0.00,,,0.00,Wunderground v.1.15,2013-03-11 23:45:00,
2013-03-11 16:55:00,53.1,43.6,30.27,SSE,159,0.0,2.0,70,0.00,,,0.00,Wunderground v.1.15,2013-03-11 23:55:00,
2013-03-11 17:05:00,52.8,44.7,30.27,SSE,159,0.0,0.0,74,0.00,,,0.00,Wunderground v.1.15,2013-03-12 00:05:00,
2013-03-11 17:15:00,52.6,45.9,30.27,SSE,159,0.0,0.0,78,0.00,,,0.00,Wunderground v.1.15,2013-03-12 00:15:00,
2013-03-11 17:25:00,52.1,45.4,30.26,SSE,159,0.0,0.0,78,0.00,,,0.00,Wunderground v.1.15,2013-03-12 00:25:00,
2013-03-11 17:35:00,51.5,45.9,30.26,SSE,159,0.0,1.0,81,0.00,,,0.00,Wunderground v.1.15,2013-03-12 00:35:00,
2013-03-11 17:45:00,51.0,45.7,30.25,SSE,159,0.0,1.0,82,0.00,,,0.00,Wunderground v.1.15,2013-03-12 00:45:00,
2013-03-11 17:55:00,50.5,45.8,30.25,SSE,159,0.0,1.0,84,0.00,,,0.00,Wunderground v.1.15,2013-03-12 00:55:00,
2013-03-11 18:00:00,50.2,45.6,30.25,SSE,159,0.0,0.0,84,0.00,,,0.00,Wunderground v.1.15,2013-03-12 01:00:00,
2013-03-11 18:05:00,50.0,45.4,30.25,SSE,159,0.0,0.0,84,0.00,,,0.01,Wunderground v.1.15,2013-03-12 01:05:00,
2013-03-11 18:15:00,49.7,45.4,30.25,SSE,159,0.0,0.0,85,0.00,,,0.01,Wunderground v.1.15,2013-03-12 01:15:00,
2013-03-11 18:25:00,49.4,45.7,30.24,SSE,159,0.0,0.0,87,0.00,,,0.01,Wunderground v.1.15,2013-03-12 01:25:00,
2013-03-11 18:35:00,49.2,45.8,30.24,SSE,168,0.0,0.0,88,0.00,,,0.01,Wunderground v.1.15,2013-03-12 01:35:00,
2013-03-11 18:45:00,48.9,45.5,30.24,SSE,168,0.0,0.0,88,0.00,,,0.02,Wunderground v.1.15,2013-03-12 01:45:00,
2013-03-11 18:55:00,48.5,45.1,30.24,SSE,168,0.0,0.0,88,0.00,,,0.02,Wunderground v.1.15,2013-03-12 01:55:00,
2013-03-11 19:05:00,48.1,45.0,30.23,SSE,168,0.0,0.0,89,0.00,,,0.02,Wunderground v.1.15,2013-03-12 02:05:00,
2013-03-11 19:15:00,47.8,45.0,30.22,SSE,168,0.0,0.0,90,0.00,,,0.02,Wunderground v.1.15,2013-03-12 02:15:00,
2013-03-11 19:25:00,47.7,45.2,30.22,SSW,196,0.0,0.0,91,0.00,,,0.02,Wunderground v.1.15,2013-03-12 02:25:00,
2013-03-11 19:35:00,47.6,45.1,30.22,SSW,195,0.0,0.0,91,0.00,,,0.02,Wunderground v.1.15,2013-03-12 02:35:00,
2013-03-11 19:45:00,47.5,45.0,30.21,South,191,0.0,0.0,91,0.00,,,0.02,Wunderground v.1.15,2013-03-12 02:45:00,
2013-03-11 19:55:00,47.4,45.2,30.21,SSW,202,0.0,0.0,92,0.00,,,0.02,Wunderground v.1.15,2013-03-12 02:55:00,
2013-03-11 20:05:00,47.6,45.7,30.20,ESE,109,0.0,0.0,93,0.00,,,0.02,Wunderground v.1.15,2013-03-12 03:05:00,
2013-03-11 20:15:00,47.7,45.8,30.20,South,175,0.0,0.0,93,0.00,,,0.02,Wunderground v.1.15,2013-03-12 03:15:00,
2013-03-11 20:25:00,47.8,45.6,30.19,SE,129,0.0,1.0,92,0.00,,,0.02,Wunderground v.1.15,2013-03-12 03:25:00,
2013-03-11 20:35:00,47.8,45.6,30.19,SSE,166,0.0,1.0,92,0.00,,,0.02,Wunderground v.1.15,2013-03-12 03:35:00,
2013-03-11 20:45:00,47.7,45.5,30.19,SE,134,0.0,1.0,92,0.00,,,0.02,Wunderground v.1.15,2013-03-12 03:45:00,
2013-03-11 20:55:00,47.7,45.5,30.19,SSW,196,0.0,1.0,92,0.00,,,0.02,Wunderground v.1.15,2013-03-12 03:55:00,
2013-03-11 21:00:00,47.7,45.5,30.19,South,175,0.0,0.0,92,0.00,,,0.02,Wunderground v.1.15,2013-03-12 04:00:00,
2013-03-11 21:05:00,47.6,45.4,30.19,South,191,0.0,0.0,92,0.00,,,0.02,Wunderground v.1.15,2013-03-12 04:05:00,
2013-03-11 21:10:00,47.4,45.2,30.19,South,180,0.0,0.0,92,0.00,,,0.02,Wunderground v.1.15,2013-03-12 04:10:00,
2013-03-11 21:15:00,47.4,45.2,30.19,South,180,0.0,0.0,92,0.00,,,0.02,Wunderground v.1.15,2013-03-12 04:15:00,
2013-03-11 21:25:00,47.3,45.1,30.18,South,185,0.0,0.0,92,0.00,,,0.02,Wunderground v.1.15,2013-03-12 04:25:00,
2013-03-11 21:30:00,47.3,45.1,30.18,SSE,159,0.0,0.0,92,0.00,,,0.02,Wunderground v.1.15,2013-03-12 04:30:00,
2013-03-11 21:35:00,47.3,45.4,30.18,South,175,0.0,4.0,93,0.00,,,0.02,Wunderground v.1.15,2013-03-12 04:35:00,
2013-03-11 21:45:00,47.2,45.3,30.18,WSW,244,0.0,4.0,93,0.00,,,0.02,Wunderground v.1.15,2013-03-12 04:45:00,
2013-03-11 21:55:00,47.0,44.8,30.18,South,175,0.0,4.0,92,0.00,,,0.02,Wunderground v.1.15,2013-03-12 04:55:00,
2013-03-11 22:00:00,47.0,45.1,30.18,NNW,341,0.0,0.0,93,0.00,,,0.02,Wunderground v.1.15,2013-03-12 05:00:00,
2013-03-11 22:10:00,46.9,45.0,30.17,South,175,0.0,0.0,93,0.00,,,0.02,Wunderground v.1.15,2013-03-12 05:10:00,
2013-03-11 22:15:00,46.9,45.0,30.17,WNW,289,0.0,1.0,93,0.00,,,0.02,Wunderground v.1.15,2013-03-12 05:15:00,
2013-03-11 22:20:00,46.8,44.9,30.17,South,190,0.0,0.0,93,0.00,,,0.02,Wunderground v.1.15,2013-03-12 05:20:00,
2013-03-11 22:25:00,46.8,44.9,30.17,South,180,0.0,0.0,93,0.00,,,0.02,Wunderground v.1.15,2013-03-12 05:25:00,
2013-03-11 22:35:00,46.8,44.9,30.16,SSE,162,0.0,1.0,93,0.00,,,0.02,Wunderground v.1.15,2013-03-12 05:35:00,
2013-03-11 22:45:00,46.8,45.2,30.16,SSE,158,0.0,1.0,94,0.00,,,0.02,Wunderground v.1.15,2013-03-12 05:45:00,
2013-03-11 22:55:00,46.9,45.3,30.16,South,191,0.0,1.0,94,0.00,,,0.02,Wunderground v.1.15,2013-03-12 05:55:00,
2013-03-11 23:05:00,47.0,45.4,30.15,SSE,147,0.0,1.0,94,0.00,,,0.02,Wunderground v.1.15,2013-03-12 06:05:00,
2013-03-11 23:15:00,47.2,45.6,30.15,SW,222,1.0,1.0,94,0.00,,,0.02,Wunderground v.1.15,2013-03-12 06:15:00,
2013-03-11 23:25:00,47.4,46.0,30.15,South,175,1.0,3.0,95,0.00,,,0.02,Wunderground v.1.15,2013-03-12 06:25:00,
2013-03-11 23:35:00,47.5,46.1,30.14,South,169,1.0,4.0,95,0.00,,,0.02,Wunderground v.1.15,2013-03-12 06:35:00,
2013-03-11 23:45:00,47.6,46.2,30.14,South,180,1.0,3.0,95,0.00,,,0.02,Wunderground v.1.15,2013-03-12 06:45:00,
2013-03-11 23:55:00,47.7,46.3,30.13,SSW,198,0.0,4.0,95,0.00,,,0.02,Wunderground v.1.15,2013-03-12 06:55:00,